Overview Statistics Trail Chart Weather Telemetry Raw packets
 

This is the latest recevied weather packets stored in our database for station/object N9BID. If no packets are shown the sender has not sent any weather packets the latest 10 day(s).

<< 1 2 3 4 5 6 7 >>
Time Temp. Humidity Pressure Rain* Wind** Luminosity Snow
1788556675 30° C 82% 1011.5 hPa 0 mm - 99 W/m² -
1788556369 30.56° C 80% 1011.3 hPa 0 mm - 103 W/m² -
1788556064 31.11° C 77% 1011.3 hPa 0 mm - 147 W/m² -
1788555758 31.67° C 76% 1011.4 hPa 0 mm - 145 W/m² -
1788555455 31.11° C 78% 1011.6 hPa 0 mm - 181 W/m² -
1788555151 30.56° C 78% 1011.4 hPa 0 mm - 172 W/m² -
1788554847 30.56° C 81% 1011.5 hPa 0 mm - 133 W/m² -
1788554538 31.11° C 80% 1011.5 hPa 0 mm - 155 W/m² -
1788554233 30.56° C 79% 1011.5 hPa 0 mm - 130 W/m² -
1788553929 30.56° C 81% 1011.6 hPa 0 mm - 133 W/m² -
1788553625 30.56° C 80% 1011.6 hPa 0 mm - 119 W/m² -
1788553322 30.56° C 81% 1011.6 hPa 0 mm - 101 W/m² -
1788553022 30.56° C 80% 1011.7 hPa 0 mm - 140 W/m² -
1788552716 30.56° C 82% 1011.7 hPa 0 mm - 95 W/m² -
1788552416 30° C 82% 1011.7 hPa 0 mm - 148 W/m² -
1788552106 30° C 83% 1011.9 hPa 0 mm - 132 W/m² -
1788551804 30° C 82% 1011.9 hPa 0 mm - 98 W/m² -
1788551503 30° C 81% 1011.8 hPa 0 mm - 152 W/m² -
1788551197 30° C 84% 1011.7 hPa 0 mm - 120 W/m² -
1788550892 29.44° C 83% 1012 hPa 0 mm - 145 W/m² -
1788550587 29.44° C 85% 1011.9 hPa 0 mm - 159 W/m² -
1788550284 29.44° C 84% 1011.9 hPa 0 mm - 173 W/m² -
1788549983 29.44° C 84% 1011.9 hPa 0 mm - 128 W/m² -
1788549679 30° C 84% 1012 hPa 0 mm - 149 W/m² -
1788549375 30° C 82% 1011.9 hPa 0 mm - 119 W/m² -

* Rain latest hour (hover to see other rain measurements)
** Current wind speed in m/s (hover to see current wind gust speed)